TimeEST,TemperatureF,Dew PointF,Humidity,Sea Level PressureIn,VisibilityMPH,Wind Direction,Wind SpeedMPH,Gust SpeedMPH,PrecipitationIn,Events,Conditions,WindDirDegrees,DateUTC
12:15 AM,32.0,28.4,87,30.07,10.0,Calm,Calm,-,N/A,,Clear,0,2014-01-13 05:15:00
12:35 AM,32.0,26.6,80,30.07,10.0,Calm,Calm,-,N/A,,Clear,0,2014-01-13 05:35:00
12:55 AM,32.0,26.6,80,30.09,10.0,South,3.5,-,N/A,,Clear,190,2014-01-13 05:55:00
1:15 AM,33.8,28.4,81,30.10,10.0,South,4.6,-,N/A,,Clear,190,2014-01-13 06:15:00
1:35 AM,33.8,26.6,75,30.10,10.0,SSW,3.5,-,N/A,,Clear,200,2014-01-13 06:35:00
1:55 AM,33.8,26.6,75,30.10,10.0,SSW,3.5,-,N/A,,Clear,210,2014-01-13 06:55:00
2:15 AM,33.8,26.6,75,30.11,10.0,SW,3.5,-,N/A,,Clear,220,2014-01-13 07:15:00
2:35 AM,32.0,26.6,80,30.11,10.0,Calm,Calm,-,N/A,,Clear,0,2014-01-13 07:35:00
2:55 AM,28.4,24.8,86,30.10,10.0,Calm,Calm,-,N/A,,Clear,0,2014-01-13 07:55:00
3:15 AM,28.4,26.6,93,30.11,10.0,Calm,Calm,-,N/A,,Clear,0,2014-01-13 08:15:00
3:35 AM,28.4,24.8,86,30.11,10.0,Calm,Calm,-,N/A,,Clear,0,2014-01-13 08:35:00
3:55 AM,28.4,24.8,86,30.11,10.0,Calm,Calm,-,N/A,,Clear,0,2014-01-13 08:55:00
4:15 AM,28.4,24.8,86,30.11,10.0,Calm,Calm,-,N/A,,Clear,0,2014-01-13 09:15:00
4:35 AM,26.6,24.8,93,30.11,7.0,Calm,Calm,-,N/A,,Clear,0,2014-01-13 09:35:00
4:55 AM,26.6,24.8,93,30.12,7.0,Calm,Calm,-,N/A,,Clear,0,2014-01-13 09:55:00
5:15 AM,26.6,24.8,93,30.12,7.0,Calm,Calm,-,N/A,,Clear,0,2014-01-13 10:15:00
5:35 AM,26.6,24.8,93,30.13,10.0,Calm,Calm,-,N/A,,Clear,0,2014-01-13 10:35:00
6:45 AM,23.0,23.0,100,30.12,10.0,Calm,Calm,-,N/A,,Clear,0,2014-01-13 11:45:00
7:45 AM,24.8,23.0,93,30.13,10.0,Calm,Calm,-,N/A,,Clear,0,2014-01-13 12:45:00
8:45 AM,32.0,28.4,87,30.15,10.0,Calm,Calm,-,N/A,,Scattered Clouds,0,2014-01-13 13:45:00
9:45 AM,35.6,30.2,81,30.14,10.0,Calm,Calm,-,N/A,,Scattered Clouds,0,2014-01-13 14:45:00
10:45 AM,42.8,30.2,61,30.11,7.0,Calm,Calm,-,N/A,,Mostly Cloudy,0,2014-01-13 15:45:00
11:45 AM,46.4,32.0,57,30.07,10.0,SW,4.6,-,N/A,,Mostly Cloudy,220,2014-01-13 16:45:00
12:45 PM,48.2,32.0,54,30.04,10.0,SW,8.1,-,N/A,,Mostly Cloudy,220,2014-01-13 17:45:00
1:45 PM,50.0,33.8,54,30.00,10.0,SE,3.5,-,N/A,,Mostly Cloudy,140,2014-01-13 18:45:00
2:45 PM,51.8,35.6,54,29.98,10.0,SE,6.9,-,N/A,,Mostly Cloudy,140,2014-01-13 19:45:00
3:45 PM,50.0,37.4,62,29.97,10.0,ESE,3.5,-,N/A,,Mostly Cloudy,120,2014-01-13 20:45:00
4:45 PM,46.4,35.6,66,29.96,10.0,Calm,Calm,-,N/A,,Overcast,0,2014-01-13 21:45:00
5:45 PM,39.2,33.8,81,29.96,10.0,Calm,Calm,-,N/A,,Overcast,0,2014-01-13 22:45:00
7:45 PM,48.2,33.8,58,29.95,7.0,SSW,5.8,-,N/A,,Overcast,200,2014-01-14 00:45:00
8:45 PM,46.4,33.8,62,29.95,7.0,SSW,5.8,-,N/A,,Overcast,210,2014-01-14 01:45:00
9:45 PM,35.6,30.2,81,29.93,7.0,SSW,5.8,-,N/A,,Overcast,210,2014-01-14 02:45:00
9:55 PM,39.2,32.0,75,29.92,10.0,Calm,Calm,-,N/A,,Clear,0,2014-01-14 02:55:00
10:15 PM,41.0,32.0,70,29.92,10.0,Calm,Calm,-,N/A,,Clear,0,2014-01-14 03:15:00
10:35 PM,37.4,32.0,81,29.91,10.0,Calm,Calm,-,N/A,,Clear,0,2014-01-14 03:35:00
10:55 PM,37.4,32.0,81,29.90,10.0,Calm,Calm,-,N/A,,Clear,0,2014-01-14 03:55:00
11:15 PM,37.4,32.0,81,29.90,10.0,Calm,Calm,-,N/A,,Clear,0,2014-01-14 04:15:00
11:35 PM,37.4,32.0,81,29.90,10.0,Calm,Calm,-,N/A,,Clear,0,2014-01-14 04:35:00
11:55 PM,35.6,32.0,87,29.89,10.0,Calm,Calm,-,N/A,,Clear,0,2014-01-14 04:55:00